Location: *
(45.0500°N, 12.0500°E)
Time: 13:07:10
(UTC+00:00)

SL-24 R/B - Pass Details

Date: 09 April 2020
Orbit: 504 x 1003 km, 97.4° (Epoch: 25 May)

Event Time Altitude Azimuth Distance (km) Brightness Sun altitude
Rises 18:46:28 0° 18° (NNE) 2,822 7.5 -10.3°
Reaches altitude 10° 18:48:48 10° 25° (NNE) 1,857 6.5 -10.7°
Maximum altitude 18:52:34 42° 98° (E) 760 4.1 -11.3°
Drops below altitude 10° 18:56:04 10° 170° (S) 1,724 6.0 -11.9°
Sets 18:58:10 0° 178° (S) 2,592 7.0 -12.2°
